Theta_e
310 312 316 313 314 312 312 313 313 315 316 316 315 315 319 322 332 333 335 334 336 337 340 339 339 339 340 338 338 337 336 336 338 342 342 341 339 340 338 338 338 339 340 339 339 340 339 338 338
313 316 314 313 313 312 313 311 315 314 315 314 316 318 319 324 331 335 339 335 336 337 340 339 339 339 340 339 339 338 337 335 336 338 341 340 342 341 340 339 338 339 339 338 339 339 339 338 338
319 319 318 314 312 313 313 311 314 313 313 317 319 317 319 321 324 333 334 335 336 340 339 339 338 338 339 339 339 338 337 336 335 337 340 341 342 341 340 339 339 339 338 339 338 339 338 338 338
316 317 316 317 314 313 311 312 313 316 316 317 317 320 319 319 324 330 331 335 342 339 339 338 337 337 337 338 339 338 338 337 335 336 339 341 341 341 340 339 339 339 338 337 337 337 337 338 338
314 316 318 318 317 316 313 312 314 317 317 318 317 319 320 321 322 329 331 335 341 343 338 337 335 335 335 336 337 337 337 337 336 335 336 337 339 340 339 339 338 338 337 337 337 337 337 337 337
317 316 317 318 317 316 314 315 316 317 317 318 318 319 320 317 321 328 332 333 338 341 339 334 334 333 334 334 333 336 337 337 336 336 336 336 337 338 338 337 337 336 336 335 335 337 337 337 337
317 318 319 318 318 318 318 316 317 318 317 317 317 318 319 319 324 328 333 332 336 338 338 338 337 335 334 333 333 336 337 337 337 336 336 335 336 337 336 335 336 336 336 335 335 336 336 336 336
318 318 320 319 319 319 318 316 316 315 315 316 316 317 319 317 325 331 332 333 333 336 336 337 338 339 337 335 334 336 336 336 336 336 336 335 335 335 335 334 335 336 335 334 334 335 336 336 336
311 320 320 319 319 319 316 313 313 313 315 312 314 316 315 315 325 335 335 333 332 333 335 336 338 337 336 337 339 337 337 337 337 337 336 335 335 335 335 333 333 335 334 332 333 334 336 335 335
314 318 318 315 315 314 311 308 308 309 310 311 311 311 312 311 313 325 335 334 334 334 333 335 337 336 338 340 339 340 339 339 339 338 337 336 335 334 335 333 331 333 334 333 333 334 334 335 335
309 313 311 310 309 305 305 305 306 306 306 307 308 309 309 310 312 317 332 336 333 334 333 332 334 335 336 339 340 339 340 341 340 338 336 336 335 334 332 331 332 330 333 333 333 333 333 334 335
308 306 305 306 305 304 304 304 305 306 306 305 306 306 307 307 308 309 312 318 336 335 333 330 331 332 335 337 339 341 340 342 344 338 337 335 335 334 332 329 328 330 333 333 333 333 334 333 335
306 305 305 305 303 302 302 303 304 305 304 304 305 305 305 306 306 307 307 309 314 335 337 329 329 331 334 336 335 339 340 340 341 341 337 336 335 332 330 329 327 332 332 333 333 333 334 333 334
305 305 306 303 303 302 302 304 303 304 304 304 304 304 304 305 305 305 306 307 309 312 333 336 330 327 329 334 336 337 338 339 338 338 337 336 335 331 330 329 328 330 332 332 332 332 333 333 333
305 305 303 302 302 303 302 303 304 303 303 303 303 304 305 305 304 304 304 305 306 308 311 334 337 332 328 326 332 336 336 336 336 336 336 336 335 332 328 328 329 329 330 332 331 331 332 332 332
303 302 303 303 302 303 302 302 303 303 303 303 303 304 305 305 305 304 304 304 304 305 308 310 330 337 334 332 331 332 333 335 335 336 336 336 336 334 328 328 327 328 329 329 330 330 331 332 332
302 304 303 303 303 301 301 301 301 302 302 303 304 305 305 305 306 305 304 304 304 304 306 307 312 332 336 336 334 334 333 333 333 335 336 335 335 335 329 330 329 327 328 327 327 329 329 330 331
304 303 302 302 302 301 301 302 302 303 303 303 304 304 305 305 306 306 305 305 304 304 304 306 308 323 335 336 335 335 334 334 333 333 333 335 335 334 330 330 331 329 329 328 328 330 330 331 330
302 301 300 300 300 300 302 302 302 303 303 303 303 304 306 308 309 307 306 305 304 304 304 305 308 313 335 336 335 334 333 333 333 333 333 335 335 334 332 331 330 330 331 330 330 330 330 329 329
300 299 300 301 300 301 302 302 303 303 304 304 305 307 312 312 313 314 312 306 306 304 304 305 307 310 331 334 336 335 334 333 333 333 333 332 334 334 333 332 330 331 330 330 329 329 329 328 328
300 300 300 301 301 301 302 304 304 306 305 306 307 311 313 313 313 314 315 311 306 305 304 305 306 309 326 334 336 336 335 335 334 333 332 333 334 334 335 333 332 331 331 330 329 330 330 328 327
300 300 300 301 301 302 302 306 305 305 305 307 308 313 314 314 313 316 317 317 307 306 305 304 304 307 320 335 337 336 337 337 335 334 333 333 332 333 334 335 332 332 331 331 331 330 331 329 327
300 301 301 301 302 302 304 305 306 305 307 308 312 314 315 315 315 315 319 314 307 306 305 304 304 306 313 335 337 338 338 338 338 336 335 334 332 332 334 335 333 332 332 331 330 330 330 329 329
300 301 302 303 305 306 305 305 305 306 308 313 312 314 316 315 315 317 315 318 311 305 305 304 304 307 310 332 338 339 339 339 338 337 336 335 333 333 332 334 333 333 333 332 332 332 330 330 329
301 304 303 302 304 302 304 304 305 307 310 310 312 312 314 312 312 314 311 312 315 319 305 305 305 306 312 329 337 339 339 339 338 338 337 335 335 334 333 333 335 334 334 334 333 331 330 330 330
303 305 304 303 304 303 304 307 306 307 307 308 308 311 310 308 306 309 306 308 308 312 321 308 308 310 317 328 336 338 339 338 338 338 338 337 335 335 335 333 336 335 334 333 333 333 331 330 330
301 303 303 305 305 307 306 305 305 306 306 307 308 309 306 304 304 303 301 301 305 305 309 321 325 318 321 330 337 338 339 338 338 338 338 336 335 335 335 335 333 336 334 333 334 332 331 329 329
302 301 304 305 307 307 305 306 309 307 306 306 308 309 304 300 301 299 299 298 299 302 304 306 314 320 328 334 338 339 339 338 337 337 338 337 335 335 335 334 333 335 334 333 332 331 331 329 329
302 303 302 304 305 307 308 306 306 306 305 306 308 305 302 299 297 298 296 296 296 298 300 301 305 310 314 320 330 336 336 336 336 336 337 336 335 334 333 333 333 332 333 332 332 331 330 330 329
300 301 303 305 305 307 307 308 305 305 303 303 305 303 300 299 296 295 295 294 294 295 297 298 299 303 305 309 313 321 328 330 333 332 332 333 333 332 332 332 332 332 332 332 332 331 330 330 328
Wind_Speed
3 4 2 3 2 2 2 1 2 4 6 5 10 5 13 11 6 6 9 11 18 29 32 30 29 28 27 25 21 20 20 20 21 24 25 25 24 23 23 21 21 21 19 19 18 16 15 17 18
7 3 3 2 2 1 2 2 4 2 8 11 5 7 3 2 5 13 5 17 24 31 32 31 29 27 26 25 24 21 19 20 22 24 24 24 23 23 22 20 20 20 19 18 18 16 15 16 17
5 3 1 3 3 5 3 4 2 5 7 10 7 3 5 12 14 8 12 13 24 32 32 31 29 27 27 26 24 23 22 21 22 24 25 25 23 22 20 19 19 20 19 18 17 17 17 17 19
2 3 3 1 6 4 4 2 4 7 1 11 4 2 7 2 14 13 17 11 14 29 31 30 28 27 25 25 25 24 23 23 23 24 25 25 23 20 19 19 20 19 18 17 16 18 19 19 19
5 2 3 0 4 5 3 4 3 6 4 10 6 10 13 2 17 16 5 13 13 16 28 28 27 26 25 25 24 24 24 24 24 24 24 23 22 20 18 18 19 19 18 17 16 18 19 19 20
3 1 2 3 6 4 2 4 2 4 6 10 9 13 7 11 26 19 6 15 18 17 21 28 28 26 26 25 25 25 25 25 25 24 23 22 20 19 18 17 17 17 16 15 17 19 20 19 21
3 2 3 3 5 6 1 1 3 9 11 9 8 10 6 17 24 18 7 16 17 18 19 19 25 27 25 26 25 25 25 25 25 24 24 22 20 18 17 17 16 17 16 16 18 20 21 21 21
3 3 5 3 3 6 2 6 5 8 11 7 4 6 9 21 23 18 6 10 16 17 20 19 17 17 21 24 25 25 26 25 25 25 24 22 20 18 17 17 17 16 16 17 18 20 21 22 22
2 2 2 2 3 3 9 10 2 5 5 9 4 5 15 23 20 12 6 6 14 15 17 17 14 17 20 21 22 25 25 24 24 24 23 22 20 19 19 18 17 16 16 16 17 20 23 23 22
2 2 5 3 2 5 11 7 14 7 12 10 12 14 15 26 19 17 11 10 10 14 18 17 14 14 16 19 21 23 24 23 23 25 25 23 22 20 18 19 17 17 16 15 17 21 25 25 24
2 2 2 1 4 4 9 16 7 11 9 13 18 19 20 21 25 15 15 13 16 14 17 22 19 16 18 15 21 26 26 25 23 21 26 24 23 22 20 19 19 19 18 18 19 21 21 22 23
2 1 0 5 4 7 7 8 10 6 6 11 10 14 14 17 17 22 22 20 15 18 21 23 25 22 20 20 17 23 27 26 24 24 24 26 24 23 22 21 22 20 18 20 19 21 20 21 20
1 1 4 7 6 3 6 7 6 15 8 9 12 14 16 15 17 22 24 23 18 19 23 29 29 28 25 25 20 21 25 24 26 26 26 25 24 23 24 23 23 18 22 22 21 21 20 18 20
1 4 7 2 9 3 11 13 6 2 10 17 21 24 19 17 21 22 23 26 23 20 23 30 35 35 34 30 29 22 25 22 21 29 30 27 25 25 25 27 23 26 21 22 21 22 22 16 16
2 4 4 4 7 3 16 3 6 6 9 19 22 23 23 22 25 25 25 28 27 26 23 24 33 40 41 41 38 28 25 24 22 24 32 31 28 28 26 27 23 23 23 21 21 21 19 17 18
3 3 4 3 10 2 12 9 3 15 21 25 23 20 23 26 25 25 27 30 32 31 26 24 25 32 42 42 42 42 36 28 24 22 28 34 31 29 28 27 27 26 24 20 21 22 19 18 17
6 3 5 10 11 6 12 23 6 16 20 23 22 22 22 25 29 29 28 29 32 33 33 27 24 31 38 39 37 35 36 36 30 26 23 33 35 32 31 27 26 29 26 25 24 22 19 20 18
3 4 5 11 7 16 17 28 21 19 19 22 22 21 21 24 28 38 36 31 33 34 37 35 29 29 36 34 29 28 29 30 31 35 28 27 37 34 33 29 27 30 28 26 24 20 17 16 16
1 3 10 15 11 11 16 27 24 28 17 19 17 16 17 21 27 35 41 38 32 36 35 37 30 28 31 32 32 32 34 32 30 33 34 30 32 38 34 31 29 31 31 29 25 18 19 14 15
3 7 6 7 5 13 18 28 22 21 12 11 14 13 18 24 27 27 33 39 35 34 36 35 32 25 31 33 37 34 35 33 34 30 32 33 33 37 41 35 35 33 28 26 27 23 17 11 22
6 3 4 9 11 12 14 14 3 12 13 16 13 14 22 25 28 32 26 31 38 33 35 38 36 29 31 36 31 24 25 19 25 28 31 38 37 36 38 36 38 36 32 32 32 26 25 17 21
5 3 10 14 12 5 6 8 9 12 20 20 21 24 25 28 32 30 31 26 32 39 34 38 36 33 31 34 31 32 32 29 32 38 39 34 37 39 40 35 37 37 35 31 33 30 27 23 20
5 12 15 13 11 6 3 5 7 18 17 25 26 26 27 28 31 34 28 32 34 38 30 37 35 33 30 33 36 39 36 35 28 28 30 33 34 39 39 39 35 37 36 33 34 32 26 27 23
7 7 6 1 2 3 2 4 11 11 19 25 29 29 27 25 28 26 31 33 22 27 30 34 30 32 29 34 39 39 38 31 27 29 30 32 35 36 39 39 37 37 36 35 35 33 31 27 25
7 5 3 1 2 4 4 8 10 13 18 23 29 31 27 23 25 22 25 24 29 18 27 30 28 31 29 36 38 37 35 33 33 33 32 31 31 33 39 42 38 38 39 37 37 35 32 31 30
2 3 1 3 4 9 10 4 5 14 22 25 26 23 25 26 24 25 26 24 29 30 18 15 21 24 23 32 35 37 35 33 34 33 33 33 33 36 40 40 38 36 39 37 36 35 34 29 31
2 1 2 2 5 4 5 6 10 24 27 29 26 21 21 24 24 25 26 34 35 35 30 21 2 11 16 25 29 31 32 32 31 28 29 31 31 29 31 38 36 35 36 35 36 35 34 33 33
2 0 1 0 3 5 6 9 9 26 31 29 23 18 22 24 25 23 22 33 37 35 33 36 29 21 11 11 20 24 26 27 23 23 26 28 28 32 33 35 34 33 34 35 35 32 33 33 32
2 2 1 2 2 3 6 3 10 21 26 24 21 16 17 20 23 21 20 36 37 35 36 32 28 25 25 18 8 13 12 17 22 24 26 25 27 28 29 34 35 33 33 34 31 30 31 32 30
2 4 3 1 1 5 6 5 20 21 21 20 21 16 17 20 20 21 22 34 38 36 34 32 30 25 20 23 25 24 20 11 11 15 16 19 20 19 21 24 27 30 31 33 32 31 31 30 29
Wind_Direction
150 155 140 47 232 35 280 114 230 50 339 343 299 243 302 260 235 268 326 203 171 171 172 175 176 177 178 180 180 177 170 163 162 162 164 166 166 166 162 161 163 166 169 168 161 156 163 167 165
134 131 57 97 114 237 257 229 195 72 303 308 322 326 10 11 346 297 323 176 176 173 171 176 178 180 182 184 181 180 175 167 164 166 168 168 169 166 164 164 164 168 172 170 169 166 164 164 166
120 94 63 81 131 222 229 212 150 317 323 11 356 21 13 331 341 302 324 234 178 173 175 177 181 183 184 184 186 179 176 170 166 166 169 170 172 169 168 166 168 171 171 171 166 167 165 164 161
126 59 78 189 218 238 222 148 303 345 55 13 332 11 315 321 339 302 311 216 196 176 178 179 182 186 187 187 186 184 177 174 171 169 169 173 173 174 173 171 172 172 174 171 167 169 169 167 162
52 69 93 141 265 266 257 271 283 346 13 5 346 330 307 343 352 348 308 199 201 194 179 181 185 189 190 189 188 188 182 178 175 172 172 174 174 176 173 173 174 175 179 176 177 173 172 167 165
77 85 140 223 239 258 273 253 334 359 355 347 343 320 292 343 354 346 285 201 203 197 189 184 188 191 191 192 191 191 187 181 178 174 172 173 170 171 173 176 181 178 181 179 181 178 176 172 167
106 103 179 227 277 302 40 16 42 337 335 339 318 313 295 338 346 342 275 207 204 201 191 196 193 193 197 195 194 193 191 186 181 177 175 173 169 169 173 179 181 177 180 183 184 183 178 174 168
106 97 170 223 274 281 5 349 314 348 325 319 340 333 318 332 336 337 297 215 200 204 199 201 207 205 200 203 198 197 196 190 185 180 178 174 169 168 173 177 180 176 178 187 185 184 177 172 170
144 106 218 240 216 289 337 347 353 301 292 321 280 300 311 320 324 318 294 217 204 213 211 210 213 210 207 204 207 202 202 196 189 184 181 173 170 169 175 176 174 179 174 188 185 183 173 168 168
77 192 210 240 254 318 318 330 323 314 320 299 314 320 315 322 325 307 291 244 227 204 213 213 215 219 217 215 213 204 203 199 193 188 182 179 175 174 177 183 186 175 174 185 180 184 174 169 169
129 233 216 290 326 2 311 311 318 310 302 338 327 329 330 330 329 320 295 267 231 219 217 214 214 222 222 222 216 209 201 201 201 196 185 182 177 175 179 178 175 178 179 180 180 184 181 177 177
252 234 212 321 330 320 310 310 313 277 313 336 336 337 339 339 332 328 319 306 258 217 225 225 220 216 221 217 224 215 207 199 200 201 194 183 180 177 180 179 175 178 183 181 181 183 190 180 180
226 344 311 320 312 4 302 285 266 279 327 320 330 326 319 313 312 314 316 314 302 255 228 224 223 221 215 215 220 220 213 207 202 204 201 192 187 181 180 182 180 175 180 182 184 186 185 186 187
239 300 304 331 344 318 345 302 193 206 342 334 327 317 310 298 300 296 297 302 305 296 256 231 223 225 223 215 215 216 216 213 209 203 205 203 194 188 182 184 183 180 176 181 189 190 190 193 192
63 305 335 239 357 301 325 250 229 26 332 321 314 311 307 305 301 294 294 290 291 290 284 251 233 227 221 219 216 211 212 212 217 210 205 205 203 196 190 187 188 184 185 183 189 192 195 192 197
55 65 339 346 352 326 348 300 241 331 324 312 310 307 306 304 298 296 289 283 284 281 278 277 249 229 219 214 212 209 210 209 212 216 208 206 206 202 196 192 191 191 189 188 193 194 192 195 200
29 328 329 320 327 310 354 293 264 295 298 300 304 307 306 304 303 302 289 281 280 277 274 268 262 238 224 214 207 202 202 203 209 207 211 209 205 204 201 198 196 196 194 199 200 195 193 192 195
344 342 303 296 306 323 299 281 296 299 296 286 288 288 296 303 301 303 296 283 276 273 270 267 258 238 228 213 203 203 200 204 201 206 209 206 207 204 202 201 201 200 200 199 202 196 188 194 189
100 290 291 291 288 302 285 286 298 292 284 272 276 292 304 309 303 296 290 284 267 265 264 262 250 236 215 203 199 197 202 200 207 204 204 205 203 208 203 204 203 202 202 204 202 194 184 178 172
0 318 300 304 213 322 298 289 288 279 293 290 306 322 319 320 320 309 299 277 271 254 257 256 250 235 217 209 205 204 202 204 204 201 201 206 203 202 207 204 204 205 198 200 198 190 179 185 178
321 240 292 281 309 270 302 290 57 320 324 332 332 316 318 325 322 309 306 278 261 251 246 252 257 245 219 211 200 196 199 200 199 198 201 209 206 203 204 202 205 205 202 201 205 195 194 184 189
308 227 301 298 328 315 6 293 338 339 336 342 340 335 329 323 326 319 313 288 254 253 237 246 248 245 226 207 197 192 195 192 203 198 201 202 202 206 206 202 205 205 202 198 205 201 200 196 192
259 309 291 294 293 304 205 256 294 325 344 341 340 334 328 324 332 327 314 301 261 250 231 237 242 238 224 204 201 197 202 207 198 198 196 196 200 206 202 204 202 202 202 202 205 206 200 203 203
323 306 317 179 189 245 168 2 304 346 346 342 338 334 329 332 328 332 343 335 302 259 235 236 235 228 216 205 205 200 204 202 195 190 194 190 195 200 204 201 203 201 203 203 207 213 209 206 208
354 350 348 211 242 273 193 318 260 328 355 348 342 338 328 345 338 337 347 344 337 316 241 234 230 233 210 201 202 203 205 201 202 192 194 190 188 193 201 202 201 200 205 209 212 210 211 206 207
338 352 58 307 305 301 305 219 291 359 354 348 345 341 347 346 344 342 352 349 347 349 357 238 227 218 199 196 199 199 201 204 205 197 197 196 200 200 197 201 200 202 204 204 212 218 219 210 209
143 35 113 225 263 279 271 281 276 354 351 348 345 349 350 346 350 351 356 351 354 352 353 11 191 213 206 203 196 195 199 205 208 200 201 198 197 198 198 201 198 197 198 203 210 211 212 216 216
244 11 193 104 319 299 282 287 353 352 347 344 340 358 357 351 347 358 359 353 351 355 359 15 26 48 84 191 202 192 197 200 196 191 191 191 195 196 197 201 198 194 198 203 209 208 211 210 212
162 174 136 248 211 276 303 328 18 6 347 337 338 15 354 355 352 355 354 358 356 359 8 13 17 30 48 63 106 154 163 185 189 194 198 193 192 194 197 194 197 197 195 200 205 208 207 210 210
198 166 156 139 218 252 271 285 18 8 350 352 359 2 358 360 355 351 358 4 357 359 5 12 14 25 37 50 52 72 92 116 172 194 188 189 191 188 188 201 199 197 197 204 205 201 209 208 205